Regional Weather Roundup
Issued by NWS

Home | Current Version | Previous Version | Graphics & Text | Print | Product List | Glossary Off
Versions: 1 2 3 4 5 6 7 8 9 10 11 12 13 14 15 16 17 18 19 20 21 22 23 24 25 26 27 28 29 30 31 32 33 34 35 36 37 38 39 40 41 42 43 44 45 46 47 48 49 50

000
ASUS43 KOAX 110610
RWRNE

WEATHER ROUNDUP FOR NEBRASKA
NATIONAL WEATHER SERVICE OMAHA NE
1200 AM CST SUN DEC 11 2016

NOTES: SATELLITE DATA IS BEING USED TO AUGMENT CLOUD COVER ABOVE
       12000 FEET.
       "FAIR" INDICATES FEW OR NO CLOUDS BELOW 12,000 FEET WITH NO
       SIGNIFICANT WEATHER AND/OR OBSTRUCTIONS TO VISIBILITY.

  * THESE STATIONS DO NOT REPORT WEATHER SUCH AS RAIN...SNOW OR FOG.

NEZ001>004-019>022-054>056-110700-
NEBRASKA PANHANDLE

CITY           SKY/WX    TMP DP  RH WIND       PRES   REMARKS
SCOTTSBLUFF    CLOUDY    39  27  62 NW22G30   29.70R WCI  29
6HR MIN TEMP:  21; 6HR MAX TEMP:  40;

ALLIANCE       CLOUDY    16  12  84 N20       29.69R WCI  -1
6HR MIN TEMP:  16; 6HR MAX TEMP:  33;

CHADRON        CLOUDY     7   3  84 W3        29.82S
6HR MIN TEMP:   5; 6HR MAX TEMP:  11;

KIMBALL        CLOUDY    42  31  65 W13       29.69R
SIDNEY         CLOUDY    43  30  60 W13       29.66R
6HR MIN TEMP:  28; 6HR MAX TEMP:  43;

$$

NEZ057>060-069>072-079>082-110700-
SOUTHWEST NEBRASKA

CITY           SKY/WX    TMP DP  RH WIND       PRES   REMARKS
NORTH PLATTE   CLOUDY    28  23  81 S3        29.68F
6HR MIN TEMP:  25; 6HR MAX TEMP:  30;

IMPERIAL       CLOUDY    26  23  88 SW5       29.66F WCI  20
6HR MIN TEMP:  26; 6HR MAX TEMP:  29;

LEXINGTON      CLOUDY    28  23  82 S3        29.70F
MCCOOK         CLOUDY    26  23  88 S5        29.68F WCI  20
6HR MIN TEMP:  26; 6HR MAX TEMP:  31;

OGALLALA       CLOUDY    29  26  89 W6        29.67S WCI  22
$$

NEZ005>010-023>029-035>040-094-110700-
NORTH CENTRAL NEBRASKA

CITY           SKY/WX    TMP DP  RH WIND       PRES   REMARKS
VALENTINE      CLOUDY    11   7  84 NW10      29.71R WCI  -3
6HR MIN TEMP:   9; 6HR MAX TEMP:  15;

AINSWORTH      CLOUDY    18  18  98 E5        29.67S WCI  11
BROKEN BOW     CLOUDY    28  23  81 S8        29.68F WCI  20
6HR MIN TEMP:  28; 6HR MAX TEMP:  32;

O`NEILL        CLOUDY    23  19  84 E6        29.73S WCI  16
ORD            CLOUDY    27  19  72 SE5       29.71F WCI  22
6HR MIN TEMP:  26; 6HR MAX TEMP:  30;

THEDFORD       CLEAR     28  25  87 SW6       29.64F WCI  22
$$

NEZ041-046>049-061>064-073>077-083>087-110700-
SOUTH CENTRAL NEBRASKA

CITY           SKY/WX    TMP DP  RH WIND       PRES   REMARKS
GRAND ISLAND   CLOUDY    29  23  78 S9        29.75F WCI  20
6HR MIN TEMP:  29; 6HR MAX TEMP:  31;

AURORA         CLOUDY    30  22  72 SE12      29.75F WCI  20
HASTINGS       CLOUDY    29  22  75 SE9       29.74F WCI  20
6HR MIN TEMP:  29; 6HR MAX TEMP:  32;

HEBRON         CLOUDY    31  22  70 SE9       29.78F WCI  23
HOLDREGE       CLOUDY    29  24  81 S8        29.70F WCI  21
KEARNEY *      CLOUDY    27  21  80 S5        29.72F WCI  21
YORK           CLOUDY    28  23  80 S12       29.77F WCI  18
$$

NEZ011>018-030>034-042>045-110700-
NORTHEAST NEBRASKA

CITY           SKY/WX    TMP DP  RH WIND       PRES   REMARKS
NORFOLK        CLOUDY    27  20  75 E8        29.79F WCI  19
6HR MIN TEMP:  26; 6HR MAX TEMP:  27;

ALBION         CLOUDY    28  21  76 SE9       29.74F WCI  19
BLAIR          CLOUDY    32  23  69 SE12G17   29.84F WCI  23
FREMONT        CLOUDY    31  22  70 SE12      29.84F WCI  22
TEKAMAH        CLOUDY    28  21  75 SE13      29.87F WCI  17
6HR MIN TEMP:  27; 6HR MAX TEMP:  28;

WAYNE          CLOUDY    27  21  80 SE14      29.81F WCI  15
$$

NEZ050>053-065>068-078-088>093-110700-
SOUTHEAST NEBRASKA

CITY           SKY/WX    TMP DP  RH WIND       PRES   REMARKS
LINCOLN        CLOUDY    32  21  64 S9        29.85F WCI  24
6HR MIN TEMP:  32; 6HR MAX TEMP:  33;

OMAHA EPPLEY   CLOUDY    31  19  61 SE14      29.88F WCI  21
6HR MIN TEMP:  31; 6HR MAX TEMP:  32;

BEATRICE       CLOUDY    33  23  65 SE13      29.80F WCI  24
FALLS CITY     CLOUDY    34  21  59 SE12      29.89F WCI  25
6HR MIN TEMP:  32; 6HR MAX TEMP:  34;

NEBRASKA CITY  MOCLDY    32  17  54 SE10      29.86F WCI  24
PLATTSMOUTH    CLOUDY    32  19  58 SE9       29.86F WCI  24
$$

NEZ044-045-051>053-067-110700-
OMAHA AREA

CITY           SKY/WX    TMP DP  RH WIND       PRES   REMARKS
OMAHA EPPLEY   CLOUDY    31  19  61 SE14      29.88F WCI  21
6HR MIN TEMP:  31; 6HR MAX TEMP:  32;

BLAIR          CLOUDY    32  23  69 SE12G17   29.84F WCI  23
FREMONT        CLOUDY    31  22  70 SE12      29.84F WCI  22
MILLARD        CLOUDY    33  24  67 SE5       29.87F WCI  29
OFFUTT AFB     CLOUDY    31  21  66 SE12      29.87F WCI  22
PLATTSMOUTH    CLOUDY    32  19  58 SE9       29.86F WCI  24
WAHOO          FAIR      30  21  69 SE12      29.84F WCI  21
$$



USA.gov is the U.S. government's official web portal to all federal, state and local government web resources and services.